Location: Calvatone
(45.1167°N, 10.4333°E)
Time: 09:35:38
(UTC+00:00)

METEOR M2 - Pass Details

Date: 10 December 2023
Orbit: 818 x 826 km, 98.4° (Epoch: 24 February)

Event Time Altitude Azimuth Distance (km) Brightness Sun altitude
Rises 16:21:57 0° 170° (S) 3,350 ? -7.9°
Reaches altitude 10° 16:24:17 10° 173° (S) 2,422 ? -8.3°
Maximum altitude 16:29:39 72° 257° (WSW) 869 ? -9.2°
Drops below altitude 10° 16:35:03 10° 342° (NNW) 2,437 ? -10.0°
Sets 16:37:25 0° 345° (NNW) 3,373 ? -10.4°
